This demonstration page uses our WeatherBlox Daily Observations layout. Learn more.

Left ArrowRight Arrow

38.20091, -84.87328

Hourly Observations for July 8, 2019

Temp ( °F °C ) Dew Point ( °F °C ) Humidity (%) Winds ( mph kmh ) Pressure ( in mb ) Visibility ( mi km ) Precip ( " mm )
12:53 am 00:53 Cloudy 80 26.7 71 21.7 74 74 NNE 3 6 29.91 1013 10 16 0.00 0.00
1:53 am 01:53 Partly Cloudy 79 26.1 70 21.1 74 74 NNE 6 9 29.91 1013 10 16 0.00 0.00
2:53 am 02:53 Partly Cloudy 78 25.6 70 21.1 76 76 NNE 3 6 29.90 1012 10 16 0.00 0.00
3:53 am 03:53 Clear 76 24.4 70 21.1 82 82 N 5 7 29.89 1012 10 16 0.00 0.00
4:53 am 04:53 Clear 74 23.3 70 21.1 88 88 N 7 11 29.90 1013 10 16 0.00 0.00
5:44 am 05:44 Mostly Cloudy 73 22.8 69 20.6 87 87 NNE 8 13 29.91 1013 10 16 0.00 0.00
5:53 am 05:53 Mostly Cloudy 73 22.8 69 20.6 87 87 NNE 5 7 29.91 1013 10 16 0.00 0.00
6:18 am 06:18 Partly Cloudy 73 22.8 68 20 84 84 VRB 6 9 29.93 1014 10 16 0.00 0.00
6:53 am 06:53 Mostly Sunny 72 22.2 68 20 87 87 N 5 7 29.94 1014 10 16 0.00 0.00
7:53 am 07:53 Sunny 73 22.8 67 19.4 81 81 NNE 7 11 29.95 1014 10 16 0.00 0.00
9:53 am 09:53 Hazy 78 25.6 68 20 71 71 ENE 5 7 29.96 1015 4 6 0.00 0.00
10:46 am 10:46 Mostly Cloudy 79 26.1 69 20.6 72 72 VRB 6 9 29.95 1014 10 16 0.00 0.00
11:05 am 11:05 Mostly Cloudy 80 26.7 69 20.6 69 69 VRB 7 11 29.95 1014 10 16 0.00 0.00
11:53 am 11:53 Mostly Cloudy 81 27.2 69 20.6 67 67 VRB 7 11 29.96 1015 10 16 0.00 0.00
12:38 pm 12:38 Partly Cloudy 84 28.9 69 20.6 61 61 N 7 11 29.95 1014 10 16 0.00 0.00
12:53 pm 12:53 Mostly Sunny 84 28.9 69 20.6 61 61 NNE 8 13 29.96 1015 10 16 0.00 0.00
1:53 pm 13:53 Partly Cloudy 85 29.4 68 20 57 57 NE 9 15 29.95 1014 10 16 0.00 0.00
2:53 pm 14:53 Mostly Cloudy 85 29.4 68 20 57 57 N 7 11 29.95 1014 10 16 0.00 0.00
3:53 pm 15:53 Mostly Cloudy 88 31.1 68 20 52 52 NE 9 15 29.94 1014 10 16 0.00 0.00
4:53 pm 16:53 Partly Cloudy 88 31.1 67 19.4 50 50 NE 8 13 29.93 1014 10 16 0.00 0.00
5:53 pm 17:53 Sunny 88 31.1 67 19.4 50 50 N 8 13 29.93 1014 10 16 0.00 0.00
6:53 pm 18:53 Sunny 87 30.6 67 19.4 51 51 VRB 6 9 29.93 1013 10 16 0.00 0.00
7:53 pm 19:53 Sunny 86 30 67 19.4 53 53 N 5 7 29.93 1014 10 16 0.00 0.00
8:53 pm 20:53 Sunny 83 28.3 67 19.4 59 59 N 5 7 29.93 1014 10 16 0.00 0.00
9:53 pm 21:53 Clear 80 26.7 68 20 67 67 NNE 3 6 29.94 1014 10 16 0.00 0.00
10:53 pm 22:53 Clear 75 23.9 68 20 79 79 NNW 3 6 29.96 1014 10 16 0.00 0.00
11:53 pm 23:53 Clear 73 22.8 68 20 84 84 Calm 29.96 1015 10 16 0.00 0.00

Powered by AerisWeather